LEO VANTAGE 1 (43113 NORAD) Tracking and Keplerian Element Data

This shows tracking and keplerian element data for the satellite.

Feedback or suggestion? Click here.




ElementValue
Catalog43113
NameLEO VANTAGE 1
Epoch Orbit18628
Epoch Day268.37888616
Epoch Year2021
RAAN324.5241
Inclination99.2979
Eccentricity0.0114641
Argument of Perigee239.4187
Mean Anonmoly119.5623
Mean Motion13.93050206
Decay Rate-9.9E-07
L11 43113U 18004C 21268.37888616 -.00000099 00000-0 -38400-4 0 9990
L22 43113 99.2979 324.5241 0114641 239.4187 119.5623 13.93050206186282

Live tracking and technical data element details for LEO VANTAGE 1 (NORAD 43113). LEO VANTAGE 1 can be tracked NOW for your location showing map with azimuth and elevation plus other details from your city location.

Track the satellite on the map from your city or location and see movement details for azimuth, elevation, latitude, longitude, range, height, and movement on the map or in text.







IsCatalogInMostPopularTable: catalog: 43113, numindb: 593
Update: records affected: 1



GetName: 43113 LEO VANTAGE 1

Hit Count: updated at: Sun, 26 Sep 2021 23:59:00 GMT